Find Kuiper-00261

NORAD ID: 67158 Int'l Des: 2025-301 Owner: KUIP Country: US Constellation: amazon-leo operational
LEOCIRCULAR

Live-Position

3D-Globus wird geladen...

Über Kuiper-00261

Beschreibung wird geladen...

Nächste Überflüge

Passes for default location (London). Set your location on the main map for personalized predictions.

Höhenverlauf

Loading altitude history...

Zweizeiliger Elementsatz

1 67158U 25301AB 26125.17610927 .00003781 00000-0 52473-3 0 9990
2 67158 51.8999 180.8700 0000526 115.5207 244.5810 14.79926616 22029
Epoch: 5. Mai 2026 • Age: 8 hours

Aktueller Status

Höhe 631.0 km
Geschwindigkeit 7.55 km/s
Subsatellitenpunkt 29.71°N, 154.8°E
Startdatum 16. Dez. 2025
Alter 0.3 years
Typ internet

Technische Details

Klassifizierung Payload
Masse 490.00 kg
Trockenmasse 490.00 kg
Gesamtmasse 490.00 kg
Länge 1.80 m
Durchmesser 0.70 m
Spannweite 5.00 m
Form Box + 2 pan
Hersteller KUIP
Bus-Typ Kuiper
Phasenstatus In Orbit
Besitzer/Staat KUIP/US

Most Searched